Weather in Zhigayevo

Russia / Kursk Oblast     52°02′47″N   35°27′02″E
temp.,
°C
wind,
m/s
gust,
m/s
humid.,
%
clouds,
%
prec.,
mm/h
press.,
hPa
HPBL,
m
4 march, thu
thu400:00−2wsw5109316 0.0 1018276
03:00−3wsw510928 0.0 1017258
06:00−5sw511920 0.0 1014232
09:00−4sw715890 0.0 1012373
12:000sw813900 0.0 1009525
15:000sw81210024 0.0 1007494
18:00+1wsw71297100 0.0 1005642
21:00+1wsw51199100 0.3 1004432
5 march, fri
fri500:00+1w4999100 0.2 1004515
03:00−2wnw4994100 0.3 1006314
06:00−1wnw499494 0.0 1008612
09:00−4nnw479481 0.1 1010189
12:00−2nw238737 0.0 1011347
15:00−1wnw238655 0.0 1012542
18:00−3w2290100 0.1 101321
21:00−5nnw228899 0.1 101521
6 march, sat
sat600:00−6nnw2390100 0.0 101627
03:00−6nw2292100 0.0 101623
06:00−7wnw2392100 0.0 101635
09:00−6nw599096 0.1 1017505
12:00−5nw6986100 0.0 1017860
15:00−4nw71079100 0.3 10181249
18:00−6nw5128298 0.1 1019544
21:00−8nw4108553 0.1 1021253
7 march, sun
sun700:00−9w36910 0.0 1022123
03:00−9wsw49910 0.0 1021180
06:00−8sw6128621 0.0 1018335
09:00−6sw9167960 0.0 1015666
12:00−3wsw111777100 0.0 10121065
15:00−2wsw111988100 0.5 10081334
18:00−1wsw91783100 0.1 10071052
21:00−2wsw8168999 0.2 1007783
8 march, mon
mon800:00−2wsw71395100 1.3 1006676
03:00−2wsw81593100 1.8 1005898
06:00−2wnw71196100 0.9 1003697
09:00−4wnw7138487 1.1 1006966
12:00−6wnw587155 0.1 1009787
15:00−5wnw467427 0.1 1011860
18:00−8w22820 0.0 101221
21:00−10nw12850 0.0 101321